[[{"header":{"parameterUnit":"m.s-1","parameterCategory":2,"la1":30.2991,"la2":30.254,"lo1":-89.0895,"lo2":-89.0444,"dy":0.0017,"dx":0.0017,"nx":28,"ny":28,"refTime":"2025-12-28T09:00:00:Z","depth":"0","parameterNumber":2,"parameterNumberName":"U-component_of_CURRENTS"},"data":[0,0,0,0,0,0,0,0,0,0,0,0,0,0,0,0,0,0,0,0,0,0,0,0,0,0,0,0,0,0,0,0,0,0,0,0,0,0,0,0,0,0,0,0,0,0,0,0,0,0,0,0,0,0,0,0,0,0,0.3147,0.3148,0,0.3176,0.3176,0.3176,0.3181,0.3181,0.3181,0.3181,0.3152,0.3151,0.3151,0,0,0,0,0,0,0,0,0,0,0,0,0,0.3083,0.3084,0.3147,0.3148,0.3148,0.3176,0.3176,0.3176,0.3181,0.3181,0.3181,0.3181,0.3152,0.3152,0.3151,0,0,0,0,0,0,0,0,0,0,0,0,0,0.3109,0.3085,0.3147,0.3156,0.3157,0.3176,0.3176,0.3176,0.3181,0.3181,0.3181,0.3181,0.3153,0.3152,0.3151,0.3145,0,0,0.3147,0.3147,0,0,0,0,0,0,0,0,0.3108,0.3111,0.3154,0.3155,0.3157,0.3177,0.3143,0.3164,0.3181,0.317,0.3181,0.3181,0.3157,0.3155,0.3158,0.3143,0.3142,0.3147,0.3146,0.3146,0.3146,0,0,0,0,0,0,0,0.3106,0.311,0.3156,0.3155,0.3156,0.3154,0.3157,0.3147,0.316,0.3171,0.3172,0.3179,0.3157,0.3159,0.3158,0.3142,0.3147,0.3146,0.3145,0.3145,0.3151,0.3152,0,0,0,0,0,0,0.3108,0.3109,0.3155,0.3157,0.3134,0.3155,0.3159,0.3169,0.3162,0.3162,0.3179,0.3179,0.3161,0.3159,0.3156,0.3175,0.3146,0.3145,0.3144,0.315,0.3151,0.3152,0,0,0,0,0,0,0.3106,0.3112,0.3154,0.3135,0.3141,0.3157,0.3167,0.3169,0.3173,0.3169,0.3167,0.318,0.3161,0.3158,0.3159,0.3173,0.3144,0.3143,0.3149,0.3151,0.3152,0.3196,0,0,0,0,0,0,0.3105,0.3111,0.3116,0.3135,0.3142,0.3167,0.3168,0.317,0.3178,0.3178,0.3169,0.3167,0.3161,0.3161,0.3158,0.3171,0.3142,0.3148,0.315,0.3151,0.3193,0.3198,0.3203,0,0,0,0,0,0.3102,0.3111,0.3116,0.3122,0.3149,0.3167,0.317,0.3179,0.3178,0.3181,0.3183,0.3167,0.3169,0.3161,0.3157,0.317,0.3147,0.3149,0.3151,0.3191,0.3197,0.3203,0,0,0,0,0,0,0.3079,0.3113,0.3119,0.3136,0.3151,0.3169,0.3173,0.3179,0.3183,0.3183,0.3174,0.3173,0.3186,0.3168,0.316,0.3178,0.3157,0.3158,0.3188,0.3194,0.3199,0.3198,0.3142,0,0,0,0,0,0.3079,0.3095,0.3122,0.3132,0.3142,0.3156,0.3163,0.3173,0.3182,0.3183,0.3179,0.3179,0.319,0.3184,0.3189,0.3187,0.3214,0.3194,0.3199,0.3203,0.3201,0.3271,0.3282,0.3158,0.3158,0.3158,0,0,0.3068,0.3092,0.3097,0.3128,0.3139,0.3153,0.316,0.3175,0.3184,0.3178,0.3184,0.3197,0.3197,0.3211,0.3213,0.3195,0.3257,0.3206,0.3209,0.3205,0.3274,0.3286,0.3297,0.316,0.3159,0.3159,0,0,0.3055,0.308,0.3088,0.3106,0.3133,0.3149,0.3154,0.3175,0.3184,0.3195,0.3207,0.3229,0.3222,0.3239,0.3244,0.3273,0.3289,0.327,0.3282,0.335,0.3361,0.3371,0.344,0.3456,0.3262,0.3262,0.3262,0,0.3038,0.3058,0.309,0.3105,0.3118,0.3147,0.3154,0.3172,0.319,0.3203,0.3199,0.324,0.3239,0.3275,0.3289,0.3284,0.3327,0.3261,0.3358,0.3368,0.3378,0.3446,0.3463,0.3264,0.3264,0.3264,0.3263,0,0.3032,0.305,0.3056,0.3088,0.3108,0.312,0.3155,0.3172,0.3188,0.321,0.3251,0.3271,0.3294,0.3304,0.3301,0.3366,0.3379,0.3368,0.3346,0.3393,0.3462,0.3479,0.3268,0.3267,0.3266,0.3265,0,0,0.2978,0.304,0.3039,0.305,0.3101,0.3111,0.3144,0.3179,0.3198,0.3235,0.3267,0.3307,0.3331,0.3339,0.3355,0.3405,0.3515,0.3411,0.3413,0.3484,0.368,0.3684,0.3703,0.3529,0.3532,0.3534,0.3709,0,0.2955,0.2981,0.302,0.3032,0.3045,0.3094,0.3118,0.316,0.3199,0.324,0.3294,0.3331,0.3341,0.3361,0.342,0.3487,0.3558,0.3469,0.3619,0.3623,0.3625,0.3722,0.3683,0.3835,0.3725,0.3728,0.373,0,0.2924,0.2951,0.2965,0.301,0.3018,0.3031,0.3082,0.3111,0.3191,0.3225,0.3294,0.334,0.3426,0.3425,0.3587,0.3533,0.3614,0.3669,0.3677,0.3672,0.3658,0.3766,0.3869,0.3702,0.3756,0.3754,0.3752,0,0.2859,0.2903,0.2913,0.2928,0.2988,0.2998,0.3029,0.31,0.3133,0.3224,0.3265,0.3374,0.3427,0.3551,0.367,0.364,0.3854,0.3825,0.3915,0.3916,0.3906,0.3901,0.3866,0.3961,0.3961,0.396,0.396,0,0.2816,0.2815,0.288,0.2881,0.2888,0.2948,0.2969,0.3018,0.3102,0.3144,0.3252,0.3309,0.3462,0.3596,0.3705,0.3874,0.3895,0.3946,0.3971,0.3921,0.3916,0.3785,0.3713,0.3967,0.3965,0.3964,0.3963,0,0.2734,0.278,0.2788,0.2844,0.2856,0.2859,0.2925,0.2945,0.3037,0.3101,0.3135,0.3286,0.3461,0.3634,0.3836,0.391,0.3973,0.4124,0.4056,0.407,0.3964,0.3898,0.3799,0.3704,0.425,0.4252,0.4253,0,0.2692,0.2694,0.2743,0.274,0.2757,0.2781,0.2795,0.2894,0.2927,0.3077,0.3101,0.3294,0.342,0.3739,0.3934,0.4171,0.402,0.4238,0.4165,0.3975,0.392,0.3722,0.3633,0.4184,0.4185,0.4185,0.4185,0,0.2606,0.2628,0.2634,0.2643,0.2649,0.267,0.2704,0.2734,0.285,0.2929,0.3043,0.3163,0.3487,0.3696,0.4009,0.416,0.4026,0.425,0.4079,0.3894,0.3654,0.3569,0.4042,0.4189,0.4188,0.4188,0.4188,0.4188,0.2522,0.2512,0.2527,0.2525,0.2535,0.2546,0.2545,0.2616,0.2682,0.2794,0.294,0.3107,0.344,0.3878,0.3997,0.4134,0.4047,0.4075,0.4027,0.3853,0.3693,0.417,0.4315,0.4315,0.4316,0.4316,0.4316,0,0.2416,0.2415,0.2408,0.2402,0.2379,0.2429,0.2465,0.2474,0.2532,0.2699,0.2819,0.3128,0.3392,0.3673,0.3952,0.3893,0.3771,0.3808,0.3509,0.3448,0.3923,0.3848,0.3865,0.3865,0.3865,0.3865,0.3865,0.3866,0.2352,0.2312,0.2323,0.2254,0.2248,0.2217,0.223,0.2281,0.2395,0.2547,0.2705,0.2885,0.319,0.3521,0.3599,0.3593,0.3291,0.3233,0.312,0.344,0.3458,0.3475,0.3382,0.3301,0.33,0.2549,0.2544,0.2539]},{"header":{"parameterUnit":"m.s-1","parameterCategory":2,"la1":30.2991,"la2":30.254,"lo1":-89.0895,"lo2":-89.0444,"dy":0.0017,"dx":0.0017,"nx":28,"ny":28,"refTime":"2025-12-28T09:00:00:Z","depth":"0","parameterNumber":3,"parameterNumberName":"V-component_of_CURRENTS"},"data":[0,0,0,0,0,0,0,0,0,0,0,0,0,0,0,0,0,0,0,0,0,0,0,0,0,0,0,0,0,0,0,0,0,0,0,0,0,0,0,0,0,0,0,0,0,0,0,0,0,0,0,0,0,0,0,0,0,0,0.0651,0.065,0,0.0608,0.0607,0.0607,0.0583,0.0583,0.0583,0.0583,0.0482,0.0479,0.0477,0,0,0,0,0,0,0,0,0,0,0,0,0,0.0725,0.0724,0.0651,0.065,0.065,0.0608,0.0607,0.0607,0.0583,0.0583,0.0583,0.0583,0.0483,0.048,0.0477,0,0,0,0,0,0,0,0,0,0,0,0,0,0.069,0.0724,0.0651,0.0632,0.0629,0.0608,0.0607,0.0607,0.0583,0.0583,0.0583,0.0582,0.0484,0.048,0.0476,0.0459,0,0,0.0465,0.0463,0,0,0,0,0,0,0,0,0.0692,0.0688,0.0635,0.0633,0.063,0.0599,0.0596,0.0554,0.0583,0.0602,0.0583,0.0582,0.0515,0.0509,0.0504,0.0455,0.045,0.0464,0.0462,0.0461,0.046,0,0,0,0,0,0,0,0.0695,0.069,0.0635,0.0634,0.0631,0.0629,0.0624,0.0589,0.0561,0.0601,0.0599,0.0591,0.0513,0.0508,0.0501,0.0449,0.0465,0.0461,0.0459,0.0457,0.0373,0.0372,0,0,0,0,0,0,0.0696,0.0692,0.0637,0.0634,0.0659,0.0628,0.0622,0.0611,0.0563,0.0555,0.0592,0.059,0.0514,0.0506,0.0498,0.048,0.0461,0.0457,0.0455,0.0373,0.0373,0.0372,0,0,0,0,0,0,0.0698,0.0692,0.0638,0.0661,0.0654,0.0627,0.0614,0.061,0.0602,0.0556,0.0548,0.0588,0.0514,0.0503,0.0474,0.0475,0.0455,0.0452,0.0373,0.0373,0.0372,0.044,0,0,0,0,0,0,0.07,0.0693,0.0691,0.0661,0.0652,0.0623,0.0614,0.0609,0.0597,0.0595,0.055,0.054,0.0513,0.048,0.047,0.047,0.0449,0.0373,0.0373,0.0373,0.0437,0.0442,0.0446,0,0,0,0,0,0.0703,0.07,0.0691,0.0685,0.0649,0.0623,0.0619,0.06,0.0598,0.0593,0.057,0.0542,0.0472,0.0477,0.0466,0.0464,0.0373,0.0373,0.0373,0.0436,0.0441,0.0446,0,0,0,0,0,0,0.0731,0.0696,0.0686,0.0672,0.0648,0.0618,0.0614,0.0602,0.0582,0.0582,0.0543,0.0532,0.0508,0.0475,0.0481,0.0438,0.0416,0.0414,0.0468,0.0473,0.0477,0.0489,0.0446,0,0,0,0,0,0.0736,0.0725,0.0691,0.068,0.0669,0.0643,0.0633,0.0619,0.0595,0.0586,0.0557,0.0525,0.0499,0.0478,0.0448,0.0423,0.0408,0.0413,0.0417,0.0421,0.0423,0.0414,0.0418,0.0372,0.0372,0.0372,0,0,0.0742,0.0724,0.0716,0.0686,0.0667,0.0657,0.0637,0.062,0.0617,0.0577,0.0566,0.0538,0.0496,0.0476,0.046,0.0448,0.0427,0.0421,0.0425,0.0424,0.0414,0.0419,0.0423,0.0372,0.0372,0.0372,0,0,0.0748,0.0732,0.0725,0.0709,0.0682,0.0669,0.0664,0.0635,0.0627,0.0609,0.0587,0.0566,0.0516,0.0497,0.0479,0.0484,0.0453,0.0466,0.0493,0.0485,0.0489,0.0493,0.049,0.0492,0.0465,0.0465,0.0465,0,0.0757,0.0744,0.0719,0.071,0.0705,0.0676,0.0672,0.066,0.0628,0.0627,0.061,0.0565,0.0529,0.0516,0.0517,0.0495,0.0485,0.0482,0.0493,0.0496,0.0498,0.0494,0.0496,0.0468,0.0468,0.0468,0.0467,0,0.0756,0.0749,0.0745,0.0727,0.072,0.071,0.0691,0.0685,0.0674,0.0662,0.0647,0.0608,0.0583,0.0565,0.054,0.0537,0.0524,0.0505,0.0487,0.0507,0.0501,0.0502,0.0473,0.0472,0.0471,0.047,0,0,0.0762,0.0747,0.0745,0.075,0.073,0.0726,0.0726,0.0718,0.0735,0.0698,0.0716,0.0663,0.0649,0.0627,0.0596,0.058,0.0589,0.0549,0.0547,0.0558,0.0577,0.0562,0.0562,0.0574,0.0574,0.0575,0.057,0,0.0768,0.0766,0.0758,0.0767,0.0766,0.0755,0.0765,0.076,0.0756,0.0767,0.073,0.0731,0.0671,0.0672,0.0645,0.0609,0.0593,0.0592,0.0544,0.0543,0.0537,0.0563,0.0576,0.0572,0.0571,0.0571,0.0571,0,0.0769,0.0772,0.0778,0.0799,0.0799,0.0806,0.0831,0.0837,0.0843,0.0843,0.0832,0.0812,0.0788,0.0741,0.0679,0.0682,0.0632,0.0596,0.0594,0.0557,0.053,0.0547,0.0573,0.0397,0.0572,0.0572,0.0572,0,0.0788,0.0791,0.0804,0.0805,0.0817,0.0831,0.0845,0.0858,0.0883,0.0902,0.0929,0.0889,0.0889,0.0816,0.0735,0.0711,0.0676,0.0635,0.0573,0.0572,0.056,0.0557,0.042,0.0592,0.0592,0.0593,0.0593,0,0.0799,0.0811,0.0816,0.0822,0.0859,0.0861,0.091,0.092,0.0955,0.1001,0.0974,0.1005,0.0907,0.0875,0.0778,0.0689,0.0709,0.0585,0.0571,0.0584,0.0583,0.0409,0.0299,0.0592,0.0592,0.0592,0.0592,0,0.0815,0.0812,0.0833,0.0853,0.0865,0.0895,0.0952,0.0992,0.102,0.1084,0.1099,0.1099,0.1068,0.0972,0.0876,0.0758,0.0573,0.0631,0.0656,0.0644,0.0399,0.0292,0.0167,0.0067,0.0555,0.0554,0.0554,0,0.082,0.0829,0.0857,0.0881,0.0891,0.0938,0.0978,0.1017,0.1065,0.1142,0.1178,0.1186,0.1209,0.1073,0.0895,0.0748,0.0581,0.0625,0.0567,0.039,0.0261,0.0209,0.0129,0.0583,0.0583,0.0583,0.0583,0,0.0838,0.0845,0.0866,0.0912,0.0952,0.1012,0.1071,0.112,0.118,0.1248,0.1332,0.1369,0.1263,0.1143,0.094,0.0809,0.0486,0.0617,0.043,0.0266,0.0205,0.0102,0.0578,0.0582,0.0582,0.0582,0.0582,0.0582,0.0852,0.0874,0.0902,0.0951,0.1004,0.1083,0.1146,0.1225,0.1324,0.1455,0.1467,0.1595,0.1388,0.1131,0.0886,0.0484,0.0467,0.0347,0.0234,0.0201,0.0088,0.0561,0.0548,0.0547,0.0547,0.0547,0.0547,0,0.0865,0.0895,0.0942,0.1005,0.1074,0.1099,0.1207,0.1294,0.1426,0.159,0.1697,0.1772,0.1434,0.1095,0.0555,0.0187,0.0045,-0.0022,-0.0111,-0.0177,0.025,0.0232,0.0155,0.0155,0.0155,0.0155,0.0156,0.0156,0.0872,0.0915,0.0943,0.1052,0.1107,0.1218,0.129,0.1433,0.1585,0.1847,0.2027,0.2157,0.1939,0.0806,0.0016,-0.0174,-0.047,-0.051,-0.0677,-0.0412,-0.0386,-0.0362,-0.0405,-0.0614,-0.0615,-0.1038,-0.1042,-0.1046]}],[{"header":{"parameterUnit":"m.s-1","parameterCategory":2,"la1":30.2991,"la2":30.254,"lo1":-89.0895,"lo2":-89.0444,"dy":0.0017,"dx":0.0017,"nx":28,"ny":28,"refTime":"2025-12-28T09:00:00:Z","depth":"2","parameterNumber":2,"parameterNumberName":"U-component_of_CURRENTS"},"data":[0,0,0,0,0,0,0,0,0,0,0,0,0,0,0,0,0,0,0,0,0,0,0,0,0,0,0,0,0,0,0,0,0,0,0,0,0,0,0,0,0,0,0,0,0,0,0,0,0,0,0,0,0,0,0,0,0,0,0.1109,0.111,0,0.1139,0.1139,0.1139,0.115,0.115,0.1149,0.1149,0.1163,0.1164,0.1164,0,0,0,0,0,0,0,0,0,0,0,0,0,0.1076,0.1076,0.1109,0.111,0.111,0.1139,0.1139,0.1139,0.115,0.115,0.1149,0.1149,0.1163,0.1163,0.1164,0,0,0,0,0,0,0,0,0,0,0,0,0,0.1095,0.1076,0.1109,0.1119,0.1121,0.1139,0.1139,0.1139,0.115,0.1149,0.1149,0.1149,0.1163,0.1163,0.1164,0.1168,0,0,0.1166,0.1166,0,0,0,0,0,0,0,0,0.1094,0.1096,0.1117,0.1119,0.112,0.1141,0.1132,0.1149,0.115,0.1137,0.1149,0.1149,0.1155,0.1156,0.1161,0.1169,0.1169,0.1166,0.1166,0.1166,0.1167,0,0,0,0,0,0,0,0.1093,0.1095,0.112,0.1118,0.112,0.1128,0.113,0.1136,0.1145,0.1138,0.114,0.1145,0.1156,0.116,0.1161,0.117,0.1166,0.1166,0.1167,0.1167,0.1247,0.1248,0,0,0,0,0,0,0.109,0.1094,0.1119,0.1121,0.1108,0.1128,0.1131,0.1134,0.1145,0.1147,0.1145,0.1145,0.1159,0.116,0.1162,0.122,0.1166,0.1167,0.1167,0.1245,0.1247,0.1249,0,0,0,0,0,0,0.109,0.1092,0.1118,0.1109,0.1113,0.1129,0.1132,0.1134,0.1151,0.115,0.1152,0.116,0.1159,0.1161,0.119,0.1219,0.1167,0.1168,0.1243,0.1245,0.1248,0.1304,0,0,0,0,0,0,0.1088,0.1092,0.1097,0.1109,0.1113,0.1141,0.1132,0.1135,0.1154,0.1155,0.1164,0.1164,0.1159,0.1189,0.119,0.1219,0.1168,0.124,0.1244,0.1247,0.13,0.1308,0.1315,0,0,0,0,0,0.1087,0.1093,0.1097,0.11,0.1118,0.1142,0.1145,0.1155,0.1154,0.1169,0.1181,0.1165,0.1211,0.1191,0.1192,0.1221,0.1239,0.1243,0.1247,0.1296,0.1306,0.1315,0,0,0,0,0,0,0.1081,0.1095,0.1099,0.1109,0.113,0.1144,0.1157,0.1164,0.1184,0.1187,0.1184,0.1186,0.1224,0.1217,0.1195,0.1256,0.1224,0.1228,0.1261,0.127,0.1278,0.1288,0.1169,0,0,0,0,0,0.1082,0.109,0.1109,0.1119,0.1131,0.1147,0.1158,0.1168,0.1186,0.1194,0.1203,0.1218,0.1239,0.125,0.1264,0.1294,0.132,0.1315,0.1323,0.1329,0.134,0.14,0.1415,0.1262,0.1262,0.1262,0,0,0.1081,0.1092,0.1096,0.1119,0.1135,0.1162,0.1154,0.1179,0.1206,0.1192,0.1233,0.1243,0.1254,0.1292,0.1308,0.1291,0.1395,0.1335,0.134,0.1347,0.1406,0.1421,0.1434,0.1265,0.1264,0.1264,0,0,0.1089,0.1097,0.1111,0.1133,0.1163,0.1177,0.1189,0.1215,0.1232,0.127,0.1274,0.1306,0.1329,0.1351,0.1362,0.1421,0.1433,0.1425,0.1472,0.153,0.1543,0.1555,0.1639,0.1657,0.1429,0.1429,0.1429,0,0.109,0.111,0.112,0.1146,0.117,0.1188,0.1218,0.1241,0.1276,0.1303,0.1291,0.1359,0.1361,0.1422,0.1443,0.1439,0.1483,0.1432,0.1541,0.1552,0.1563,0.1646,0.1666,0.1432,0.1432,0.1432,0.1431,0,0.1112,0.1134,0.1148,0.1187,0.1214,0.1243,0.1278,0.1313,0.1334,0.1361,0.1425,0.1438,0.1482,0.1488,0.1482,0.1564,0.1577,0.1542,0.1515,0.1582,0.1665,0.1685,0.1437,0.1436,0.1435,0.1434,0,0,0.1101,0.1152,0.116,0.1187,0.1239,0.1264,0.132,0.1379,0.1427,0.1461,0.1529,0.1563,0.1579,0.1594,0.1597,0.1641,0.1758,0.1629,0.1631,0.1711,0.1922,0.1845,0.1859,0.1744,0.1747,0.175,0.1959,0,0.112,0.1167,0.1194,0.1251,0.1281,0.1324,0.1377,0.1435,0.1482,0.1553,0.1588,0.1646,0.1618,0.1647,0.1692,0.174,0.1809,0.1707,0.1846,0.1851,0.1772,0.1878,0.1664,0.1824,0.1978,0.1982,0.1984,0,0.1134,0.1168,0.1219,0.1289,0.1309,0.135,0.1444,0.1495,0.1595,0.1635,0.1704,0.1733,0.1822,0.1772,0.1912,0.1853,0.1902,0.1931,0.1939,0.1858,0.181,0.1776,0.1853,0.2017,0.2014,0.2012,0.2009,0,0.1117,0.1186,0.1227,0.1251,0.1332,0.1374,0.1428,0.1524,0.1582,0.1696,0.1755,0.1849,0.1914,0.1981,0.2052,0.1996,0.2208,0.2133,0.2123,0.212,0.1958,0.1934,0.2245,0.2245,0.2244,0.2244,0.2243,0,0.1121,0.1156,0.1224,0.1247,0.1315,0.1375,0.1458,0.1529,0.1638,0.1731,0.1798,0.1891,0.1968,0.2086,0.2124,0.2208,0.2279,0.2166,0.2172,0.1974,0.195,0.2113,0.2095,0.2252,0.225,0.2248,0.2247,0,0.1093,0.1136,0.1186,0.1272,0.1304,0.1354,0.1467,0.1528,0.1638,0.1765,0.1808,0.1962,0.2124,0.2214,0.2354,0.2302,0.238,0.2393,0.217,0.2143,0.2238,0.222,0.2394,0.2393,0.2392,0.2392,0.2391,0,0.1081,0.1101,0.1189,0.1223,0.1264,0.1343,0.14,0.1516,0.1593,0.181,0.1879,0.2074,0.2187,0.2372,0.2341,0.2412,0.2477,0.2238,0.2059,0.2267,0.2256,0.2239,0.2224,0.1899,0.1894,0.189,0.1887,0,0.1059,0.1088,0.1132,0.1197,0.1257,0.1323,0.1423,0.148,0.1641,0.1757,0.1944,0.2048,0.2204,0.217,0.2238,0.2229,0.2192,0.2161,0.2479,0.1866,0.1808,0.1794,0.1793,0.1855,0.1858,0.186,0.1862,0.1863,0.1041,0.1063,0.1116,0.1178,0.1237,0.1302,0.1344,0.1456,0.1574,0.1714,0.1867,0.193,0.1962,0.192,0.1933,0.1919,0.2032,0.1916,0.1924,0.1938,0.1815,0.1755,0.1772,0.1775,0.1777,0.178,0.1781,0,0.1021,0.1051,0.1096,0.1165,0.1203,0.1257,0.1357,0.1382,0.1491,0.1577,0.1677,0.1523,0.1526,0.1622,0.1519,0.1506,0.1451,0.1484,0.14,0.1433,0.1463,0.1312,0.1139,0.1138,0.1136,0.1135,0,0,0.1014,0.104,0.1063,0.1113,0.116,0.1203,0.1246,0.1286,0.1324,0.1302,0.128,0.1341,0.1461,0.1224,0.1236,0.1191,0.1289,0.1136,0.1643,0.1571,0.1598,0.17,0.1504,0,0,0,0,0]},{"header":{"parameterUnit":"m.s-1","parameterCategory":2,"la1":30.2991,"la2":30.254,"lo1":-89.0895,"lo2":-89.0444,"dy":0.0017,"dx":0.0017,"nx":28,"ny":28,"refTime":"2025-12-28T09:00:00:Z","depth":"2","parameterNumber":3,"parameterNumberName":"V-component_of_CURRENTS"},"data":[0,0,0,0,0,0,0,0,0,0,0,0,0,0,0,0,0,0,0,0,0,0,0,0,0,0,0,0,0,0,0,0,0,0,0,0,0,0,0,0,0,0,0,0,0,0,0,0,0,0,0,0,0,0,0,0,0,0,-0.014,-0.014,0,-0.0183,-0.0184,-0.0184,-0.0209,-0.0209,-0.0209,-0.0209,-0.028,-0.0282,-0.0284,0,0,0,0,0,0,0,0,0,0,0,0,0,-0.0096,-0.0097,-0.014,-0.014,-0.0141,-0.0183,-0.0184,-0.0184,-0.0209,-0.0209,-0.0209,-0.021,-0.0279,-0.0282,-0.0284,0,0,0,0,0,0,0,0,0,0,0,0,0,-0.0125,-0.0097,-0.014,-0.0158,-0.016,-0.0183,-0.0184,-0.0185,-0.0209,-0.0209,-0.0209,-0.021,-0.0279,-0.0281,-0.0284,-0.0298,0,0,-0.0292,-0.0293,0,0,0,0,0,0,0,0,-0.0123,-0.0127,-0.0155,-0.0157,-0.0159,-0.0191,-0.0195,-0.0224,-0.0209,-0.0191,-0.0209,-0.021,-0.0253,-0.0257,-0.0265,-0.0301,-0.0304,-0.0293,-0.0294,-0.0295,-0.0296,0,0,0,0,0,0,0,-0.0121,-0.0125,-0.0157,-0.0155,-0.0158,-0.0171,-0.0175,-0.02,-0.0221,-0.0192,-0.0194,-0.0199,-0.0254,-0.0262,-0.0267,-0.0306,-0.0292,-0.0295,-0.0296,-0.0298,-0.0373,-0.0373,0,0,0,0,0,0,-0.0115,-0.0123,-0.0156,-0.0158,-0.0141,-0.0171,-0.0176,-0.0181,-0.022,-0.0226,-0.0199,-0.02,-0.0258,-0.0264,-0.027,-0.0292,-0.0295,-0.0298,-0.0299,-0.0372,-0.0373,-0.0373,0,0,0,0,0,0,-0.0114,-0.0117,-0.0154,-0.0142,-0.0147,-0.0172,-0.0177,-0.0181,-0.019,-0.0225,-0.0231,-0.0202,-0.0258,-0.0266,-0.0291,-0.0294,-0.0299,-0.0301,-0.0372,-0.0372,-0.0373,-0.0334,0,0,0,0,0,0,-0.0112,-0.0117,-0.0114,-0.0141,-0.0148,-0.0163,-0.0177,-0.0182,-0.0192,-0.0194,-0.023,-0.0237,-0.0259,-0.0287,-0.0294,-0.0298,-0.0304,-0.0371,-0.0372,-0.0373,-0.0335,-0.0333,-0.0331,0,0,0,0,0,-0.0111,-0.0107,-0.0114,-0.0118,-0.0145,-0.0163,-0.0168,-0.0186,-0.0192,-0.0194,-0.0219,-0.0236,-0.0297,-0.0289,-0.0297,-0.0302,-0.0371,-0.0372,-0.0373,-0.0335,-0.0333,-0.0332,0,0,0,0,0,0,-0.0085,-0.011,-0.0118,-0.0121,-0.0139,-0.0167,-0.0169,-0.0183,-0.0204,-0.0205,-0.0238,-0.0247,-0.027,-0.0293,-0.0285,-0.0328,-0.0338,-0.034,-0.0307,-0.0305,-0.0303,-0.0284,-0.0306,0,0,0,0,0,-0.0078,-0.0083,-0.0109,-0.011,-0.0117,-0.0142,-0.0151,-0.0164,-0.0187,-0.0196,-0.0222,-0.0253,-0.028,-0.0297,-0.0322,-0.0346,-0.0358,-0.0356,-0.0354,-0.0353,-0.0344,-0.0373,-0.0373,-0.0376,-0.0376,-0.0376,0,0,-0.0067,-0.0082,-0.0084,-0.0105,-0.0119,-0.0125,-0.0148,-0.0158,-0.0163,-0.0201,-0.0215,-0.0246,-0.0285,-0.0308,-0.0322,-0.0328,-0.0357,-0.0354,-0.0352,-0.0344,-0.0374,-0.0373,-0.0373,-0.0376,-0.0376,-0.0376,0,0,-0.005,-0.0062,-0.006,-0.0073,-0.0092,-0.0109,-0.011,-0.0138,-0.015,-0.0169,-0.0198,-0.0228,-0.0269,-0.0298,-0.0318,-0.0325,-0.0345,-0.0338,-0.0317,-0.0346,-0.0345,-0.0345,-0.0348,-0.0348,-0.034,-0.034,-0.034,0,-0.0036,-0.0036,-0.0062,-0.0062,-0.0065,-0.0099,-0.0093,-0.0113,-0.0145,-0.0152,-0.0167,-0.0227,-0.0264,-0.0293,-0.03,-0.0321,-0.0331,-0.0319,-0.0342,-0.0342,-0.0343,-0.0346,-0.0347,-0.0339,-0.0339,-0.0339,-0.0339,0,-0.0019,-0.0016,-0.0015,-0.0027,-0.0034,-0.0035,-0.0063,-0.0074,-0.0093,-0.0115,-0.0144,-0.0194,-0.0229,-0.0252,-0.028,-0.0305,-0.0308,-0.0332,-0.0342,-0.034,-0.0344,-0.0345,-0.0336,-0.0337,-0.0337,-0.0338,0,0,0.0,-0.0002,-0.0001,0.001,-0.0013,-0.0013,-0.0023,-0.0039,-0.0033,-0.0081,-0.008,-0.0149,-0.0176,-0.0201,-0.0244,-0.0276,-0.0293,-0.0304,-0.0306,-0.0296,-0.0335,-0.0326,-0.0327,-0.0323,-0.0323,-0.0323,-0.0331,0,0.0022,0.0041,0.0029,0.0051,0.0061,0.0036,0.0037,0.0018,-0.0004,-0.0013,-0.0076,-0.0096,-0.0157,-0.017,-0.0214,-0.0267,-0.0298,-0.0287,-0.0348,-0.0349,-0.0333,-0.0329,-0.0343,-0.035,-0.0333,-0.0333,-0.0334,0,0.004,0.0054,0.008,0.0104,0.0107,0.0111,0.0118,0.0115,0.0085,0.0068,0.0026,-0.0015,-0.0071,-0.0121,-0.0214,-0.0203,-0.0265,-0.0312,-0.0314,-0.0319,-0.0343,-0.0354,-0.0354,-0.0337,-0.0336,-0.0336,-0.0336,0,0.007,0.0092,0.012,0.0123,0.0137,0.0147,0.0153,0.0138,0.0153,0.0119,0.0129,0.005,0.0032,-0.0069,-0.0163,-0.0193,-0.0246,-0.0303,-0.0351,-0.035,-0.0379,-0.038,-0.0368,-0.0368,-0.0368,-0.0368,-0.0368,0,0.0096,0.0121,0.0138,0.0153,0.0199,0.019,0.0229,0.0221,0.0226,0.0266,0.0174,0.0195,0.0044,-0.0004,-0.0121,-0.0219,-0.0216,-0.0337,-0.0354,-0.0365,-0.0364,-0.0372,-0.0373,-0.0369,-0.0369,-0.0368,-0.0368,0,0.0122,0.013,0.0171,0.0199,0.0213,0.0245,0.0288,0.0322,0.0312,0.0364,0.0361,0.0311,0.0257,0.0124,-0.0008,-0.0141,-0.0251,-0.0287,-0.0271,-0.0287,-0.0351,-0.0349,-0.0363,-0.0363,-0.0363,-0.0363,-0.0363,0,0.0138,0.0161,0.021,0.0245,0.0259,0.0304,0.0345,0.0358,0.0407,0.0451,0.0494,0.046,0.0465,0.0279,0.0044,-0.0145,-0.0176,-0.0295,-0.0374,-0.0336,-0.0352,-0.035,-0.0349,-0.0394,-0.0394,-0.0394,-0.0394,0,0.0178,0.0192,0.0228,0.0299,0.0349,0.0415,0.0478,0.0536,0.0578,0.0644,0.0736,0.0747,0.056,0.0357,0.0083,-0.0063,-0.0275,-0.0304,-0.0268,-0.0388,-0.0365,-0.038,-0.0378,-0.0395,-0.0395,-0.0395,-0.0395,-0.0395,0.0211,0.0247,0.0296,0.0365,0.043,0.053,0.0607,0.0705,0.0825,0.094,0.0907,0.0895,0.0607,0.0245,0.0028,-0.0228,-0.0244,-0.0381,-0.0381,-0.0381,-0.0379,-0.0356,-0.0383,-0.0382,-0.0382,-0.0382,-0.0382,0,0.0255,0.0298,0.0365,0.0456,0.0542,0.0564,0.0704,0.081,0.0993,0.104,0.1105,0.08,0.056,0.0283,-0.0111,-0.035,-0.0382,-0.0405,-0.0418,-0.0416,-0.0415,-0.0414,-0.0428,-0.0428,-0.0428,-0.0428,0,0,0.0284,0.0352,0.0388,0.0537,0.0607,0.0748,0.084,0.1018,0.1088,0.1162,0.1101,0.0957,0.0582,0.0275,-0.0031,-0.0215,-0.0253,-0.0248,-0.0198,-0.0178,-0.0172,-0.04,-0.0398,0,0,0,0,0]}],[{"header":{"parameterUnit":"m.s-1","parameterCategory":2,"la1":30.2991,"la2":30.254,"lo1":-89.0895,"lo2":-89.0444,"dy":0.0017,"dx":0.0017,"nx":28,"ny":28,"refTime":"2025-12-28T09:00:00:Z","depth":"4","parameterNumber":2,"parameterNumberName":"U-component_of_CURRENTS"},"data":[0,0,0,0,0,0,0,0,0,0,0,0,0,0,0,0,0,0,0,0,0,0,0,0,0,0,0,0,0,0,0,0,0,0,0,0,0,0,0,0,0,0,0,0,0,0,0,0,0,0,0,0,0,0,0,0,0,0,0.0494,0.0495,0,0.0536,0.0536,0.0536,0.0561,0.0561,0.0562,0.0562,0.0623,0.0624,0.0625,0,0,0,0,0,0,0,0,0,0,0,0,0,0.0462,0.0462,0.0494,0.0495,0.0496,0.0536,0.0536,0.0536,0.0561,0.0561,0.0562,0.0563,0.0623,0.0624,0.0625,0,0,0,0,0,0,0,0,0,0,0,0,0,0.0483,0.0462,0.0494,0.0516,0.0519,0.0536,0.0536,0.0536,0.0561,0.0561,0.0562,0.0563,0.0622,0.0624,0.0626,0.0621,0,0,0.0631,0.0632,0,0,0,0,0,0,0,0,0.0481,0.0483,0.0512,0.0515,0.0518,0.0547,0.0547,0.0567,0.056,0.054,0.0562,0.0563,0.0602,0.0605,0.0605,0.0624,0.0627,0.0631,0.0632,0.0633,0.0633,0,0,0,0,0,0,0,0.048,0.0482,0.0506,0.0513,0.0517,0.0533,0.0536,0.055,0.0563,0.0542,0.0545,0.0556,0.0603,0.0603,0.0607,0.0628,0.0631,0.0632,0.0634,0.0634,0.0721,0.0722,0,0,0,0,0,0,0.0481,0.048,0.0505,0.0508,0.0506,0.0533,0.0536,0.0534,0.0563,0.0569,0.0555,0.0557,0.06,0.0605,0.0609,0.0678,0.0633,0.0634,0.0635,0.072,0.0721,0.0723,0,0,0,0,0,0,0.048,0.0482,0.0504,0.0499,0.0504,0.0533,0.053,0.0534,0.0564,0.0574,0.058,0.0584,0.0601,0.0607,0.0635,0.0678,0.0635,0.0637,0.0718,0.072,0.0722,0.0771,0,0,0,0,0,0,0.0478,0.0481,0.049,0.0499,0.0504,0.0529,0.053,0.0535,0.057,0.0573,0.06,0.0604,0.0602,0.0633,0.0637,0.068,0.0638,0.0717,0.0719,0.0721,0.0767,0.0774,0.078,0,0,0,0,0,0.0477,0.0483,0.049,0.0494,0.0512,0.053,0.0534,0.0555,0.0571,0.0584,0.0599,0.0605,0.0652,0.0635,0.064,0.0684,0.0715,0.0718,0.0721,0.0765,0.0773,0.0779,0,0,0,0,0,0,0.0473,0.0487,0.0495,0.0505,0.0525,0.0536,0.0556,0.0572,0.0594,0.0603,0.0612,0.0617,0.0659,0.0662,0.0643,0.0716,0.0689,0.0693,0.0721,0.0728,0.0734,0.0741,0.0639,0,0,0,0,0,0.0477,0.0487,0.0502,0.0515,0.0525,0.0547,0.0563,0.0577,0.0594,0.0606,0.0627,0.0649,0.067,0.0691,0.0702,0.0741,0.073,0.0775,0.0782,0.0787,0.0796,0.0808,0.0816,0.0732,0.0732,0.0732,0,0,0.048,0.0491,0.0498,0.0516,0.0533,0.055,0.0558,0.0587,0.061,0.0609,0.0653,0.0669,0.0682,0.072,0.0741,0.0733,0.0802,0.079,0.0795,0.0801,0.0812,0.082,0.0828,0.0734,0.0734,0.0733,0,0,0.0488,0.0501,0.0512,0.0531,0.0563,0.0572,0.0588,0.0615,0.0638,0.0672,0.0682,0.0717,0.0754,0.077,0.0783,0.0831,0.0828,0.0853,0.0899,0.0912,0.0918,0.0924,0.0907,0.0911,0.0864,0.0864,0.0864,0,0.0495,0.0506,0.0521,0.054,0.0562,0.0585,0.0606,0.0628,0.0665,0.0687,0.0694,0.0758,0.0774,0.0821,0.0848,0.0846,0.0846,0.0869,0.0919,0.0925,0.093,0.0911,0.0915,0.0866,0.0866,0.0866,0.0866,0,0.0504,0.0526,0.0538,0.0564,0.0589,0.0613,0.0642,0.0674,0.0707,0.073,0.0789,0.0808,0.0848,0.0871,0.088,0.0941,0.0925,0.0917,0.0899,0.0942,0.0918,0.0921,0.087,0.0869,0.0868,0.0868,0,0,0.0488,0.0533,0.0541,0.0564,0.0607,0.0625,0.0667,0.0707,0.0745,0.0788,0.0838,0.089,0.0914,0.0931,0.0953,0.0984,0.1023,0.0987,0.0986,0.0966,0.1041,0.1007,0.1006,0.1034,0.1035,0.1036,0.1004,0,0.0494,0.0526,0.0552,0.0596,0.0616,0.0657,0.0694,0.0738,0.0781,0.0833,0.0871,0.0926,0.0932,0.0974,0.1001,0.1025,0.1037,0.1031,0.1006,0.1005,0.0966,0.1011,0.104,0.1006,0.1007,0.1007,0.1007,0,0.0494,0.0518,0.0556,0.0615,0.0629,0.0663,0.0731,0.077,0.0838,0.0879,0.0934,0.0967,0.1031,0.1027,0.1065,0.1068,0.1062,0.1067,0.1065,0.1021,0.0977,0.0958,0.1013,0.1012,0.1012,0.1012,0.1011,0,0.0468,0.0524,0.0555,0.0577,0.0641,0.0678,0.0718,0.0787,0.0831,0.0921,0.0964,0.1021,0.1067,0.1077,0.1102,0.1093,0.1131,0.11,0.1046,0.1042,0.1058,0.1052,0.111,0.111,0.111,0.111,0.111,0,0.0459,0.0488,0.0552,0.057,0.062,0.0676,0.0743,0.0791,0.0871,0.0924,0.0993,0.1035,0.1093,0.1121,0.1115,0.11,0.1129,0.1063,0.1043,0.1076,0.1073,0.1058,0.1053,0.1109,0.1109,0.1109,0.1109,0,0.0428,0.0468,0.0506,0.0579,0.061,0.0648,0.075,0.0788,0.0878,0.095,0.0987,0.1063,0.1101,0.1131,0.1154,0.1115,0.1105,0.1084,0.1117,0.1098,0.0991,0.0988,0.0999,0.0998,0.0997,0.0996,0.0996,0,0.0411,0.0428,0.0503,0.0531,0.0571,0.0645,0.0687,0.0782,0.0827,0.0951,0.0969,0.105,0.1091,0.1081,0.1113,0.1091,0.1079,0.1058,0.1029,0.1006,0.0985,0.0985,0.0983,0.0994,0.0994,0.0993,0.0993,0,0.038,0.0411,0.0443,0.0492,0.0542,0.0599,0.0672,0.0701,0.0811,0.0897,0.0952,0.0989,0.1025,0.1041,0.1057,0.1032,0.107,0.1046,0.1047,0.102,0.0999,0.098,0.098,0.099,0.099,0.099,0.0991,0,0.0356,0.0364,0.0405,0.0449,0.0505,0.054,0.0586,0.0651,0.071,0.0851,0.0861,0.094,0.1015,0.1008,0.101,0.1011,0.0975,0.0936,0.0942,0.0946,0.0949,0.0917,0.0874,0,0,0,0,0,0.0328,0.0332,0.0361,0.0402,0.0453,0.0486,0.0569,0.0618,0.0725,0.0746,0.0813,0.0849,0.0886,0.0912,0.0896,0.0954,0.096,0.093,0.0913,0.097,0.0974,0.0985,0,0,0,0,0,0,0.0308,0.0328,0.0338,0.0359,0.0379,0.0425,0.0471,0.0538,0.0564,0.068,0.0697,0.0797,0.0828,0.0885,0.0878,0.0888,0.0861,0.0983,0.0981,0.0967,0.0971,0.0974,0.0988,0,0,0,0,0]},{"header":{"parameterUnit":"m.s-1","parameterCategory":2,"la1":30.2991,"la2":30.254,"lo1":-89.0895,"lo2":-89.0444,"dy":0.0017,"dx":0.0017,"nx":28,"ny":28,"refTime":"2025-12-28T09:00:00:Z","depth":"4","parameterNumber":3,"parameterNumberName":"V-component_of_CURRENTS"},"data":[0,0,0,0,0,0,0,0,0,0,0,0,0,0,0,0,0,0,0,0,0,0,0,0,0,0,0,0,0,0,0,0,0,0,0,0,0,0,0,0,0,0,0,0,0,0,0,0,0,0,0,0,0,0,0,0,0,0,0.0107,0.0106,0,0.0059,0.0058,0.0058,0.0036,0.0036,0.0035,0.0035,-0.0025,-0.0027,-0.0028,0,0,0,0,0,0,0,0,0,0,0,0,0,0.0124,0.0125,0.0107,0.0106,0.0105,0.0059,0.0058,0.0058,0.0036,0.0036,0.0035,0.0035,-0.0025,-0.0027,-0.0028,0,0,0,0,0,0,0,0,0,0,0,0,0,0.0103,0.0125,0.0107,0.0087,0.0084,0.0059,0.0058,0.0058,0.0036,0.0036,0.0035,0.0035,-0.0024,-0.0026,-0.0029,-0.0037,0,0,-0.0035,-0.0036,0,0,0,0,0,0,0,0,0.0104,0.0102,0.0091,0.0088,0.0085,0.0051,0.0042,0.0025,0.0036,0.0056,0.0035,0.0035,-0.0002,-0.0006,-0.0011,-0.004,-0.0043,-0.0035,-0.0037,-0.0038,-0.0038,0,0,0,0,0,0,0,0.0106,0.0104,0.009,0.009,0.0087,0.0061,0.0059,0.0039,0.003,0.0055,0.0052,0.0044,-0.0003,-0.0009,-0.0013,-0.0044,-0.0035,-0.0037,-0.0039,-0.004,-0.0089,-0.0089,0,0,0,0,0,0,0.0111,0.0106,0.0091,0.0088,0.0092,0.0061,0.0059,0.0064,0.0031,0.0025,0.0044,0.0043,-0.0005,-0.0011,-0.0015,-0.0024,-0.0038,-0.004,-0.0041,-0.0089,-0.0089,-0.0089,0,0,0,0,0,0,0.0111,0.011,0.0093,0.0093,0.0089,0.0062,0.0068,0.0063,0.005,0.0023,0.0017,0.0034,-0.0006,-0.0012,-0.003,-0.0027,-0.0041,-0.0043,-0.0089,-0.0089,-0.0089,-0.0045,0,0,0,0,0,0,0.0112,0.0111,0.0111,0.0094,0.0089,0.0081,0.0067,0.0062,0.0044,0.0042,0.0012,0.0007,-0.0006,-0.0026,-0.0032,-0.003,-0.0044,-0.0089,-0.0089,-0.0089,-0.0046,-0.0043,-0.0041,0,0,0,0,0,0.0113,0.0116,0.0112,0.0109,0.0092,0.0081,0.0077,0.0057,0.0044,0.0043,0.0025,0.0008,-0.0031,-0.0028,-0.0035,-0.0034,-0.0089,-0.0089,-0.0089,-0.0048,-0.0044,-0.0041,0,0,0,0,0,0,0.012,0.0113,0.0108,0.0108,0.0096,0.0077,0.007,0.0054,0.0038,0.0034,0.0009,0.0002,-0.0013,-0.0031,-0.0028,-0.0049,-0.0063,-0.0064,-0.003,-0.0027,-0.0024,-0.0018,-0.0046,0,0,0,0,0,0.0123,0.0127,0.0113,0.0113,0.0109,0.0088,0.0078,0.0067,0.005,0.0042,0.0023,0.0001,-0.0018,-0.0028,-0.0046,-0.0057,-0.0079,-0.0062,-0.0059,-0.0057,-0.0057,-0.0091,-0.0091,-0.0089,-0.0089,-0.0089,0,0,0.0123,0.0121,0.0121,0.0115,0.0105,0.0107,0.0083,0.0072,0.0072,0.0038,0.0032,0.0008,-0.002,-0.0028,-0.0037,-0.0043,-0.0066,-0.0056,-0.0054,-0.0056,-0.0091,-0.0091,-0.0091,-0.0089,-0.0089,-0.0089,0,0,0.0133,0.0129,0.0137,0.0133,0.012,0.0112,0.0109,0.0092,0.0084,0.0075,0.0049,0.0031,0.0003,-0.0011,-0.0023,-0.0019,-0.0053,-0.0031,-0.001,-0.0043,-0.0043,-0.0044,-0.0059,-0.0061,-0.0027,-0.0027,-0.0027,0,0.0132,0.0145,0.0135,0.0143,0.014,0.0118,0.0125,0.0117,0.0095,0.0088,0.008,0.0036,0.0016,-0.0001,0.0002,-0.0011,-0.0036,-0.0018,-0.0039,-0.004,-0.0041,-0.0057,-0.006,-0.0025,-0.0025,-0.0026,-0.0026,0,0.0152,0.0158,0.0163,0.0172,0.0168,0.0169,0.016,0.0154,0.0141,0.0128,0.0107,0.008,0.0053,0.0043,0.0024,0.0002,-0.0013,-0.0032,-0.0044,-0.0039,-0.0055,-0.006,-0.0022,-0.0023,-0.0024,-0.0024,0,0,0.0161,0.0175,0.0176,0.0185,0.0183,0.0184,0.0189,0.0183,0.0179,0.0161,0.0149,0.0124,0.0098,0.0081,0.0051,0.0026,0.0002,-0.0008,-0.001,-0.0017,-0.0066,-0.0084,-0.0091,-0.0029,-0.003,-0.003,-0.0068,0,0.0178,0.0202,0.0203,0.0222,0.0232,0.0221,0.0228,0.0219,0.0204,0.0188,0.0157,0.0137,0.0116,0.0097,0.0069,0.0009,-0.001,0.0015,-0.0075,-0.0077,-0.0091,-0.0097,-0.0033,-0.0072,-0.0073,-0.0073,-0.0074,0,0.0194,0.021,0.0235,0.0249,0.0253,0.0263,0.0263,0.0265,0.0241,0.0226,0.0198,0.0164,0.0127,0.0105,0.0027,0.0037,-0.0009,-0.0047,-0.005,-0.0088,-0.0104,-0.0083,-0.0082,-0.0081,-0.0081,-0.008,-0.008,0,0.0204,0.0228,0.0251,0.0257,0.0273,0.0281,0.0287,0.0275,0.0279,0.0244,0.0235,0.0181,0.0152,0.0086,0.0005,0.0009,-0.0089,-0.009,-0.0142,-0.0143,-0.0133,-0.0132,-0.0142,-0.0142,-0.0141,-0.0141,-0.0141,0,0.0218,0.0234,0.026,0.0273,0.03,0.0301,0.0321,0.0313,0.0302,0.0306,0.0254,0.0234,0.014,0.0072,0.0005,-0.0087,-0.0088,-0.014,-0.0159,-0.0111,-0.0108,-0.0135,-0.0134,-0.0143,-0.0142,-0.0142,-0.0142,0,0.0219,0.0237,0.0267,0.0295,0.0306,0.0325,0.0354,0.0364,0.0349,0.0349,0.0339,0.0266,0.0172,0.0079,-0.0038,-0.0084,-0.0171,-0.0201,-0.0138,-0.0152,-0.0195,-0.0191,-0.0248,-0.0249,-0.025,-0.0251,-0.0251,0,0.0223,0.0239,0.0285,0.0308,0.0324,0.0356,0.0379,0.0385,0.0399,0.0369,0.0367,0.0275,0.0217,0.0048,-0.0059,-0.019,-0.0207,-0.0238,-0.0217,-0.0196,-0.0209,-0.0203,-0.0198,-0.0253,-0.0253,-0.0253,-0.0253,0,0.0228,0.0246,0.0274,0.0322,0.0357,0.0397,0.043,0.0444,0.0449,0.044,0.0388,0.0294,0.0181,0.0045,-0.0071,-0.0161,-0.0212,-0.0248,-0.0246,-0.0226,-0.0203,-0.0213,-0.0207,-0.0257,-0.0256,-0.0256,-0.0256,0,0.0233,0.0253,0.0291,0.0332,0.0379,0.0421,0.0441,0.0456,0.0466,0.0443,0.0419,0.0296,0.0223,0.0058,-0.0047,-0.0147,-0.0157,-0.0164,-0.0167,-0.0164,-0.0137,-0.0094,-0.0133,0,0,0,0,0,0.0235,0.0258,0.0296,0.0347,0.0395,0.0421,0.0466,0.0483,0.0494,0.0468,0.0448,0.0344,0.0172,0.0086,-0.0015,-0.0064,-0.0179,-0.0185,-0.0189,-0.0274,-0.0271,-0.0255,0,0,0,0,0,0,0.0237,0.0274,0.0294,0.035,0.0384,0.0437,0.0467,0.0476,0.0463,0.0455,0.036,0.0326,0.015,0.0225,-0.0019,-0.0051,-0.0063,-0.0266,-0.0268,-0.0277,-0.0273,-0.027,-0.0253,0,0,0,0,0]}]]